Date String (YYYY-MM-DD hh:mm:ss) UTC,Instrument flags,absolute air pressure of the measurement (hPa),sample flow rate (lpm),inlet stack bypass flow (lpm),air temperature of the measurement (°C),ambient temperature measured by the external sensor (°C),aerosol sample conditioner tube jacket temperature (°C),OPC LED temperature (°C),internal box temperature (°C),relative humidity of the measurement (%),span deviation,mass concentration of particles derived from Lorenz-Mie calculation of OPC scattering (μg/m³),mass concentration of particles derived from Lorenz-Mie calculation of OPC scattering (μg/m³),mass concentration of particles derived from Lorenz-Mie calculation of OPC scattering (μg/m³)
DateTimeUTC,F1_M11,P_M11,Q1_M11,Q2_M11,T1_M11,T2_M11,T3_M11,T4_M11,T5_M11,U1_M11,ZSPAN_M11,X0_M11,X2_M11,X1_M11
2024-03-21 01:00:00,SystemResetWarning,0825.4,5.00,000.00,025.5,024.7,000.0,034.0,027.3,16.3,0004.0,0019.63,0009.55,0008.14
2024-03-21 01:01:00,SystemResetWarning,0825.4,5.00,000.00,025.5,024.8,000.0,034.0,027.3,16.3,0004.1,0020.29,0009.46,0008.12
2024-03-21 01:02:00,SystemResetWarning,0825.5,4.99,000.00,025.5,024.8,000.0,034.0,027.3,16.4,0004.1,0021.03,0009.41,0008.10
2024-03-21 01:03:00,SystemResetWarning,0825.5,5.02,000.00,025.5,024.8,000.0,034.0,027.4,16.3,0004.2,0021.56,0009.34,0008.09
2024-03-21 01:04:00,SystemResetWarning,0825.5,5.00,000.00,025.5,024.8,000.0,034.0,027.4,16.3,0004.2,0021.93,0009.29,0008.08
2024-03-21 01:05:00,SystemResetWarning,0825.5,4.99,000.00,025.5,024.8,000.0,034.0,027.4,16.3,0004.1,0022.20,0009.30,0008.06
2024-03-21 01:06:00,SystemResetWarning,0825.5,4.99,000.00,025.6,024.8,000.0,034.0,027.4,16.4,0004.2,0022.98,0009.30,0008.07
2024-03-21 01:07:00,SystemResetWarning,0825.6,5.00,000.00,025.6,024.8,000.0,034.0,027.4,16.5,0004.1,0022.77,0009.30,0008.08
2024-03-21 01:08:00,SystemResetWarning,0825.6,5.00,000.00,025.6,024.8,000.0,034.0,027.4,16.5,0004.0,0022.55,0009.27,0008.10
2024-03-21 01:09:00,SystemResetWarning,0825.6,4.99,000.00,025.6,024.8,000.0,034.0,027.4,16.5,0004.2,0022.86,0009.28,0008.13
2024-03-21 01:10:00,SystemResetWarning,0825.6,5.00,000.00,025.6,024.8,000.0,034.1,027.4,16.4,0004.6,0022.82,0009.30,0008.16
2024-03-21 01:11:00,SystemResetWarning,0825.6,5.01,000.00,025.6,024.8,000.0,034.1,027.4,16.3,0004.3,0023.60,0009.32,0008.17
2024-03-21 01:12:00,SystemResetWarning,0825.6,5.02,000.00,025.6,024.8,000.0,034.1,027.4,16.3,0004.2,0023.50,0009.39,0008.20
2024-03-21 01:13:00,SystemResetWarning,0825.5,4.99,000.00,025.6,024.8,000.0,034.1,027.4,16.2,0004.2,0023.18,0009.46,0008.23
2024-03-21 01:14:00,SystemResetWarning,0825.6,5.00,000.00,025.6,024.8,000.0,034.1,027.4,16.1,0004.1,0023.24,0009.51,0008.26
2024-03-21 01:15:00,SystemResetWarning,0825.6,5.01,000.00,025.6,024.9,000.0,034.1,027.4,16.1,0004.3,0024.05,0009.56,0008.29
2024-03-21 01:16:00,SystemResetWarning,0825.6,5.00,000.00,025.6,024.9,000.0,034.1,027.5,16.1,0004.5,0024.47,0009.58,0008.31
2024-03-21 01:17:00,SystemResetWarning,0825.6,5.00,000.00,025.6,024.9,000.0,034.1,027.5,16.0,0004.6,0023.69,0009.64,0008.32
2024-03-21 01:18:00,SystemResetWarning,0825.6,5.00,000.00,025.6,024.9,000.0,034.1,027.5,16.0,0005.0,0023.44,0009.68,0008.33
2024-03-21 01:19:00,SystemResetWarning,0825.6,5.00,000.00,025.6,024.9,000.0,034.1,027.5,15.9,0004.8,0023.73,0009.69,0008.33
2024-03-21 01:20:00,SystemResetWarning,0825.6,4.99,000.00,025.6,024.9,000.0,034.1,027.5,15.8,0004.8,0024.33,0009.64,0008.33
2024-03-21 01:21:00,SystemResetWarning,0825.6,4.99,000.00,025.6,024.9,000.0,034.1,027.5,15.8,0005.1,0024.99,0009.61,0008.31
2024-03-21 01:22:00,SystemResetWarning,0825.7,5.00,000.00,025.6,024.9,000.0,034.1,027.5,16.0,0005.4,0024.20,0009.54,0008.30
2024-03-21 01:23:00,SystemResetWarning,0825.7,5.01,000.00,025.7,024.9,000.0,034.1,027.5,16.2,0005.4,0023.51,0009.55,0008.32
2024-03-21 01:24:00,SystemResetWarning,0825.6,5.00,000.00,025.7,024.9,000.0,034.1,027.5,16.1,0005.5,0023.60,0009.58,0008.35
2024-03-21 01:25:00,SystemResetWarning,0825.7,4.99,000.00,025.7,024.9,000.0,034.2,027.5,15.9,0005.4,0023.70,0009.63,0008.39
2024-03-21 01:26:00,SystemResetWarning,0825.7,4.99,000.00,025.7,024.9,000.0,034.2,027.5,15.9,0005.3,0023.46,0009.70,0008.45
2024-03-21 01:27:00,SystemResetWarning,0825.6,5.01,000.00,025.7,024.9,000.0,034.2,027.5,15.9,0005.3,0023.63,0009.74,0008.48
2024-03-21 01:28:00,SystemResetWarning,0825.6,5.02,000.00,025.7,024.9,000.0,034.2,027.5,15.8,0005.3,0023.69,0009.74,0008.53
2024-03-21 01:29:00,SystemResetWarning,0825.7,4.98,000.00,025.7,024.9,000.0,034.2,027.5,15.9,0004.9,0023.95,0009.77,0008.60
2024-03-21 01:30:00,SystemResetWarning,0825.7,5.00,000.00,025.7,024.8,000.0,034.2,027.5,16.0,0005.2,0023.94,0009.82,0008.64
2024-03-21 01:31:00,SystemResetWarning,0825.7,5.03,000.00,025.7,024.8,000.0,034.2,027.5,16.0,0005.4,0023.35,0009.92,0008.70
2024-03-21 01:32:00,SystemResetWarning,0825.7,4.96,000.00,025.7,024.8,000.0,034.2,027.5,15.9,0005.0,0023.38,0010.02,0008.77
2024-03-21 01:33:00,SystemResetWarning,0825.7,5.01,000.00,025.7,024.8,000.0,034.2,027.5,16.3,0004.8,0024.11,0010.11,0008.81
2024-03-21 01:34:00,SystemResetWarning,0825.7,5.01,000.00,025.7,024.8,000.0,034.2,027.5,16.6,0004.3,0023.92,0010.06,0008.79
2024-03-21 01:35:00,SystemResetWarning,0825.7,5.01,000.00,025.7,024.8,000.0,034.2,027.5,16.3,0004.0,0024.13,0009.97,0008.75
2024-03-21 01:36:00,SystemResetWarning,0825.7,5.01,000.00,025.6,024.8,000.0,034.2,027.5,15.9,0004.7,0024.64,0009.95,0008.74
2024-03-21 01:37:00,SystemResetWarning,0825.8,4.98,000.00,025.6,024.8,000.0,034.2,027.5,15.9,0005.1,0024.28,0009.93,0008.71
2024-03-21 01:38:00,SystemResetWarning,0825.8,5.01,000.00,025.6,024.8,000.0,034.2,027.5,15.9,0004.8,0023.24,0009.98,0008.71
2024-03-21 01:39:00,SystemResetWarning,0825.8,5.00,000.00,025.6,024.8,000.0,034.2,027.5,15.7,0004.4,0024.96,0010.00,0008.73
2024-03-21 01:40:00,SystemResetWarning,0825.8,5.00,000.00,025.6,024.8,000.0,034.2,027.5,15.6,0003.9,0026.04,0010.03,0008.73
2024-03-21 01:41:00,SystemResetWarning,0825.8,5.00,000.00,025.6,024.8,000.0,034.2,027.5,15.6,0004.3,0026.05,0010.02,0008.74
2024-03-21 01:42:00,SystemResetWarning,0825.8,4.99,000.00,025.6,024.7,000.0,034.2,027.5,15.6,0004.0,0027.48,0010.06,0008.76
2024-03-21 01:43:00,SystemResetWarning,0825.8,5.00,000.00,025.6,024.7,000.0,034.2,027.5,15.5,0004.3,0027.12,0010.06,0008.73
2024-03-21 01:44:00,SystemResetWarning,0825.8,5.00,000.00,025.6,024.7,000.0,034.2,027.5,15.5,0004.4,0025.92,0010.11,0008.76
2024-03-21 01:45:00,SystemResetWarning,0825.8,5.00,000.00,025.6,024.7,000.0,034.2,027.5,16.4,0004.6,0025.82,0010.14,0008.75
2024-03-21 01:46:00,SystemResetWarning,0825.8,4.99,000.00,025.6,024.7,000.0,034.2,027.4,16.1,0004.7,0026.37,0010.12,0008.71
2024-03-21 01:47:00,SystemResetWarning,0825.8,5.01,000.00,025.6,024.7,000.0,034.2,027.4,16.1,0004.6,0025.55,0010.06,0008.66
2024-03-21 01:48:00,SystemResetWarning,0825.8,5.01,000.00,025.6,024.7,000.0,034.2,027.4,15.9,0004.6,0024.92,0010.04,0008.61
2024-03-21 01:49:00,SystemResetWarning,0825.9,5.00,000.00,025.6,024.7,000.0,034.2,027.4,15.8,0004.8,0024.86,0009.95,0008.59
2024-03-21 01:50:00,SystemResetWarning,0825.9,4.99,000.00,025.6,024.7,000.0,034.2,027.4,15.7,0004.6,0023.34,0009.87,0008.55
2024-03-21 01:51:00,SystemResetWarning,0825.9,5.00,000.00,025.6,024.7,000.0,034.2,027.4,15.6,0005.0,0021.66,0009.78,0008.50
2024-03-21 01:52:00,SystemResetWarning,0825.9,5.00,000.00,025.6,024.6,000.0,034.2,027.4,15.6,0004.9,0021.22,0009.81,0008.48
2024-03-21 01:53:00,SystemResetWarning,0825.9,5.00,000.00,025.6,024.6,000.0,034.2,027.4,15.5,0004.8,0019.21,0009.78,0008.47
2024-03-21 01:54:00,SystemResetWarning,0825.9,5.01,000.00,025.6,024.6,000.0,034.2,027.4,15.5,0004.8,0018.76,0009.76,0008.48
2024-03-21 01:55:00,SystemResetWarning,0825.9,5.01,000.00,025.6,024.6,000.0,034.2,027.4,15.5,0004.8,0018.29,0009.67,0008.47
2024-03-21 01:56:00,SystemResetWarning,0825.9,4.99,000.00,025.6,024.6,000.0,034.2,027.4,15.6,0005.0,0018.16,0009.70,0008.54
2024-03-21 01:57:00,SystemResetWarning,0825.9,4.99,000.00,025.6,024.6,000.0,034.2,027.4,16.0,0005.1,0017.68,0009.78,0008.62
2024-03-21 01:58:00,SystemResetWarning,0825.9,5.00,000.00,025.6,024.6,000.0,034.2,027.4,16.1,0005.2,0017.99,0009.86,0008.65
2024-03-21 01:59:00,SystemResetWarning,0825.9,5.02,000.00,025.6,024.6,000.0,034.2,027.4,16.2,0005.1,0017.85,0009.82,0008.65
